Jacksonville Craig, FL

1:50 PM EDT on October 17, 2017 (GMT -0400)
Craig Municipal

Weather History for KCRG - July, 2013

Change the Weather History Date:

Tuesday, July 23, 2013

  Actual Average Record
Temperature  
Mean Temperature 84 °F -  
Max Temperature 93 °F 88 °F 97 °F (2005)
Min Temperature 77 °F 71 °F 69 °F (2007)
Cooling Degree Days 19    
Growing Degree Days 34 (Base 50)    
Moisture  
Dew Point 72 °F    
Average Humidity 75    
Maximum Humidity 84    
Minimum Humidity 55    
Precipitation  
Precipitation 0.05 in - - ()
Sea Level Pressure  
Sea Level Pressure 29.99 in    
Wind  
Wind Speed 9 mph (WSW)    
Max Wind Speed 21 mph    
Max Gust Speed 28 mph    
Visibility 10 miles    
Events      
Averages and records for this station are not official NWS values.
T = Trace of Precipitation, MM = Missing Value Source: NWS Daily Summary

Daily Weather History Graph

Daily Weather History Graph

Search for Another Location

Airport or City:

Trip Planner

Search our weather history database for the weather conditions in past years. The results will help you decide how hot, cold, wet, or windy it might be!

Date:

Astronomy

Jul. 23, 2013 Rise Set
Actual Time 6:39 AM EDT 8:25 PM EDT
Civil Twilight 6:12 AM EDT 8:52 PM EDT
Nautical Twilight 5:40 AM EDT 9:24 PM EDT
Astronomical Twilight 5:06 AM EDT 9:57 PM EDT
Moon 9:04 PM EDT (7/23) 7:37 AM EDT (7/23)
Length of Visible Light 14h 39m
Length of Day
13h 46m
Full, 99% of the Moon is Illuminated
Jul 23
Full
Jul 29
Last Quarter
Aug 6
New
Aug 14
First Quarter
Aug 20
Full

Hourly Weather History & Observations

Time (EDT) Temp. Heat Index Dew Point Humidity Pressure Visibility Wind Dir Wind Speed Gust Speed Precip Events Conditions
12:53 AM 78.1 °F - 73.0 °F 84% 30.04 in 10.0 mi WSW 8.1 mph - N/A   Clear
1:53 AM 77.0 °F - 72.0 °F 84% 30.03 in 10.0 mi SW 6.9 mph - N/A   Clear
2:53 AM 77.0 °F - 71.1 °F 82% 30.02 in 10.0 mi WSW 5.8 mph - N/A   Clear
3:53 AM 77.0 °F - 70.0 °F 79% 30.01 in 10.0 mi SW 6.9 mph - N/A   Clear
4:53 AM 77.0 °F - 69.1 °F 76% 30.00 in 10.0 mi SW 9.2 mph - N/A   Clear
5:53 AM 78.1 °F - 71.1 °F 79% 30.01 in 10.0 mi WSW 11.5 mph - N/A   Partly Cloudy
6:53 AM 78.1 °F - 71.1 °F 79% 30.03 in 10.0 mi WSW 6.9 mph - N/A   Clear
7:53 AM 78.1 °F - 71.1 °F 79% 30.03 in 10.0 mi WSW 6.9 mph - N/A   Partly Cloudy
8:53 AM 79.0 °F - 72.0 °F 79% 30.04 in 10.0 mi WSW 10.4 mph - N/A   Mostly Cloudy
9:53 AM 81.0 °F 85.8 °F 73.0 °F 77% 30.03 in 10.0 mi WSW 11.5 mph - N/A   Mostly Cloudy
10:53 AM 82.0 °F 87.4 °F 73.0 °F 74% 30.03 in 10.0 mi SW 11.5 mph - 0.02 in   Mostly Cloudy
11:53 AM 84.9 °F 90.7 °F 72.0 °F 65% 30.02 in 10.0 mi West 12.7 mph - N/A   Partly Cloudy
12:53 PM 86.0 °F 93.0 °F 73.0 °F 65% 30.01 in 10.0 mi WNW 9.2 mph - N/A   Scattered Clouds
1:53 PM 89.1 °F 97.0 °F 73.0 °F 59% 29.98 in 10.0 mi West 10.4 mph - N/A   Scattered Clouds
2:53 PM 89.1 °F 97.0 °F 73.0 °F 59% 29.96 in 10.0 mi SW 11.5 mph - N/A   Mostly Cloudy
3:53 PM 91.0 °F 99.3 °F 73.0 °F 55% 29.94 in 10.0 mi WSW 9.2 mph - N/A   Scattered Clouds
4:53 PM 84.9 °F 90.7 °F 72.0 °F 65% 29.94 in 10.0 mi SW 20.7 mph 27.6 mph N/A   Mostly Cloudy
5:53 PM 81.0 °F 85.8 °F 73.0 °F 77% 29.94 in 10.0 mi WSW 11.5 mph - 0.03 in   Clear
6:53 PM 81.0 °F 84.9 °F 71.1 °F 72% 29.94 in 10.0 mi WSW 10.4 mph 21.9 mph N/A   Clear
7:53 PM 80.1 °F 83.6 °F 71.1 °F 74% 29.94 in 10.0 mi WSW 10.4 mph - N/A   Clear
8:53 PM 79.0 °F - 72.0 °F 79% 29.94 in 10.0 mi WSW 10.4 mph - N/A   Partly Cloudy
9:53 PM 79.0 °F - 73.0 °F 82% 29.94 in 10.0 mi WSW 6.9 mph - N/A   Partly Cloudy
10:24 PM 78.8 °F - 73.4 °F 83% 29.95 in 10.0 mi WSW 8.1 mph - N/A   Mostly Cloudy
10:53 PM 80.1 °F 84.5 °F 73.9 °F 81% 29.94 in 10.0 mi WSW 9.2 mph - N/A   Mostly Cloudy
11:53 PM 79.0 °F - 73.9 °F 84% 29.93 in 10.0 mi SW 6.9 mph - N/A   Mostly Cloudy